EW4908 Weather Reports


time (UTC)temp
C
wind
direction
speed
KPH
gust
KPH
rain 1hr
cm
rain 24hr
cm
rain mn
cm
humidity
%
barometer
mb
20260505121514 11 119 19.3 29.0 0.00 0.00 0.00 64 1015.6
20260505120033 11 105 22.5 32.2 0.00 0.00 0.00 65 1015.5
20260505114538 11 109 22.5 33.8 0.00 0.00 0.00 66 1015.3
20260505113004 12 93 25.7 37.0 0.00 0.00 0.00 65 1015.2
20260505111600 12 115 24.1 33.8 0.00 0.00 0.00 64 1015.1
20260505111502 12 86 24.1 33.8 0.00 0.00 0.00 64 1015.1
20260505101522 12 92 19.3 25.7 0.00 0.00 0.00 64 1014.7
20260505100021 12 117 17.7 22.5 0.00 0.00 0.00 65 1014.6
20260505094612 12 140 17.7 25.7 0.00 0.00 0.00 63 1014.4
20260505093010 12 105 19.3 25.7 0.00 0.00 0.00 65 1014.3
20260505091607 12 140 14.5 19.3 0.00 0.00 0.00 65 1014.3
20260505090023 12 117 12.9 17.7 0.00 0.00 0.00 63 1014.2
20260505084541 12 113 12.9 17.7 0.00 0.00 0.00 63 1014.0
20260505083036 12 120 11.3 14.5 0.00 0.00 0.00 65 1014.0
20260505081508 12 113 12.9 19.3 0.00 0.00 0.00 63 1013.8
20260505080002 13 126 14.5 19.3 0.00 0.00 0.00 61 1013.7
20260505074530 14 123 17.7 24.1 0.00 0.00 0.00 57 1013.6
20260505073045 14 105 16.1 20.9 0.00 0.00 0.00 57 1013.5
20260505071602 13 96 16.1 20.9 0.00 0.00 0.00 58 1013.3
20260505070103 15 94 16.1 22.5 0.00 0.00 0.00 55 1013.3
20260505064538 15 88 16.1 22.5 0.00 0.00 0.00 53 1013.1
20260505063029 16 103 16.1 19.3 0.00 0.00 0.00 52 1013.0
20260505061559 16 110 11.3 16.1 0.00 0.00 0.00 55 1012.9
20260505054537 16 80 14.5 17.7 0.00 0.00 0.00 54 1012.9
20260505051621 16 120 8.0 11.3 0.00 0.00 0.00 58 1012.7
20260505041559 18 128 8.0 9.7 0.00 0.00 0.00 51 1012.2
20260505041554 18 127 8.0 9.7 0.00 0.00 0.00 51 1012.2
20260505040014 20 122 6.4 8.0 0.00 0.00 0.00 45 1012.0
20260505034512 20 126 4.8 11.3 0.00 0.00 0.00 42 1011.8
20260505033041 20 138 3.2 6.4 0.00 0.00 0.00 42 1011.6
20260505031551 21 144 4.8 8.0 0.00 0.00 0.00 44 1011.4
20260505030032 22 141 6.4 11.3 0.00 0.00 0.00 44 1011.1
20260505024538 22 139 6.4 9.7 0.00 0.00 0.00 41 1011.0
20260505023020 23 184 8.0 9.7 0.00 0.00 0.00 39 1010.9
20260505021520 23 195 8.0 11.3 0.00 0.00 0.00 40 1010.9
20260505020030 23 190 8.0 11.3 0.00 0.00 0.00 37 1010.9
20260505014527 23 159 8.0 12.9 0.00 0.00 0.00 36 1010.9
20260505013002 23 151 8.0 12.9 0.00 0.00 0.00 41 1010.9
20260505011601 23 131 9.7 17.7 0.00 0.00 0.00 40 1011.0
20260505004554 24 78 14.5 22.5 0.00 0.00 0.00 41 1011.2
20260505003017 25 128 9.7 16.1 0.00 0.00 0.00 35 1011.2
20260505001515 24 80 11.3 16.1 0.00 0.00 0.00 37 1011.3
20260505000039 25 55 8.0 20.9 0.00 0.00 0.00 40 1011.2
20260504234526 25 67 6.4 17.7 0.00 0.00 0.00 36 1011.3
20260504233013 25 132 3.2 12.9 0.00 0.00 0.00 35 1011.2
20260504230104 26 248 6.4 14.5 0.00 0.00 0.00 33 1011.4
20260504224547 25 159 9.7 16.1 0.00 0.00 0.00 39 1011.5
20260504223025 24 137 8.0 16.1 0.00 0.00 0.00 41 1011.7
20260504221523 25 126 3.2 14.5 0.00 0.00 0.00 39 1011.8
20260504220021 25 185 4.8 11.3 0.00 0.00 0.00 41 1011.9
20260504214519 25 101 8.0 12.9 0.00 0.00 0.00 44 1012.0
20260504213119 25 49 3.2 12.9 0.00 0.00 0.00 38 1012.2
20260504211552 25 123 6.4 11.3 0.00 0.00 0.00 38 1012.4
20260504210044 24 121 8.0 20.9 0.00 0.00 0.00 36 1012.6
20260504204508 25 163 4.8 9.7 0.00 0.00 0.00 35 1012.7
20260504203008 25 259 1.6 11.3 0.00 0.00 0.00 40 1012.8
20260504201602 25 277 1.6 11.3 0.00 0.00 0.00 45 1012.9
20260504200029 25 258 8.0 11.3 0.00 0.00 0.00 39 1012.9
20260504194506 24 143 6.4 12.9 0.00 0.00 0.00 42 1013.1
20260504193056 23 215 4.8 9.7 0.00 0.00 0.00 45 1013.2
20260504191525 23 128 1.6 8.0 0.00 0.00 0.00 47 1013.3
20260504190015 23 161 8.0 11.3 0.00 0.00 0.00 47 1013.4
20260504184658 22 52 9.7 14.5 0.00 0.00 0.00 46 1013.5
20260504183106 22 125 3.2 8.0 0.00 0.00 0.00 52 1013.5
20260504181600 22 82 3.2 11.3 0.00 0.00 0.00 53 1013.7
20260504174551 21 63 4.8 14.5 0.00 0.00 0.00 52 1013.6
20260504173047 21 46 3.2 9.7 0.00 0.00 0.00 46 1013.6
20260504171523 21 234 1.6 8.0 0.00 0.00 0.00 48 1013.7